Back to catalog

ONEWEB-0277

AliveCommunicationsPO
NORAD 48995·PAYLOAD·🇬🇧 United Kingdom

Launched Jul 1, 2021 from Vostochny Cosmodrome

Loading…

Next Passes (next 24 hours)

TLE

FreshSource: CelesTrak SupGP

Epoch: Sep 14, 2026, 12:06 UTC

1 48995C 21060AE  26257.50470324 -.00001498  00000+0 -39227-2 0  2576
2 48995  87.9143 211.0443 0002099  75.8958 326.5360 13.16594421    18

Track ONEWEB-0277 in real time with AllMySat

Download on the App Store